Flag for Israel Weather past 2 weeks in Modi'in-Maccabim-Re'ut, Israel

Now
70 °F

Passing clouds.


Feels Like: 70 °F
Forecast: 67 / 85 °F
Wind: 3 mph from North

Location: Ben Gurion International Airport

Current Time: Jun 30, 2015 at 6:36:41 AM

Latest Report: Jun 30, 2015 at 5:50 AM


Visibility: N/A

Pressure: 29.92 "Hg

Humidity: 78%

Dew point: 63 °F

Location of Modi'in-Maccabim-Re'utLocation

Historic Weather in Modi'in-Maccabim-Re'ut — Graph

°F

Modi'in-Maccabim-Re'ut temperature yesterday

Maximum temperature yesterday: 82 °F (at 10:50 AM)
Minimum temperature yesterday: 70 °F (at 5:20 AM)
Average temperature yesterday: 77 °F

Past Weeks' High & Low Weather Summary

 TemperatureHumidityPressure
High91 °F (Jun 27, 1:20 PM)88% (Jun 16, 1:20 AM)29.95 "Hg (Jun 16, 1:20 AM)
Low68 °F (Jun 15, 5:50 AM)21% (Jun 27, 6:50 PM)29.59 "Hg (Jun 27, 9:20 PM)
Average78 °F63%29.81 "Hg
* Reported Jun 15 5:20 AM — Jun 30 5:20 AM, Modi'in-Maccabim-Re'ut, Weather by CustomWeather, © 2015

Note: Actual official high and low records may vary slightly from our data, if they occured in-between our weather recording intervals... More about our weather records

Advertising

Modi'in-Maccabim-Re'ut weather history for previous 24 hours

 ConditionsComfort  
Time TempWeatherWind HumidityBarometerVisibility
5:20 AM
Tue, Jun 30
70 °FPassing clouds.5 mph78%29.92 "HgN/A
4:50 AM70 °FPassing clouds.5 mph78%29.92 "HgN/A
4:20 AM72 °FPassing clouds.3 mph73%29.92 "HgN/A
3:50 AM72 °FPassing clouds.3 mph73%29.92 "HgN/A
3:20 AM70 °FPassing clouds.2 mph73%29.92 "HgN/A
2:50 AM72 °FPassing clouds.3 mph73%29.92 "HgN/A
2:20 AM72 °FPassing clouds.2 mph73%29.92 "HgN/A
1:50 AM73 °FPassing clouds.5 mph69%29.92 "HgN/A
1:20 AM73 °FPassing clouds.5 mph69%29.95 "HgN/A
12:20 AM75 °FPassing clouds.5 mph65%29.95 "HgN/A
11:50 PM
Mon, Jun 29
75 °FClear.3 mph65%29.95 "Hg10 mi
11:20 PM75 °FClear.2 mph65%29.95 "Hg10 mi
10:50 PM75 °FClear.3 mph65%29.95 "Hg10 mi
10:20 PM75 °FClear.5 mph65%29.95 "Hg10 mi
9:50 PM75 °FClear.5 mph65%29.95 "Hg10 mi
9:20 PM75 °FClear.7 mph65%29.95 "Hg10 mi
8:50 PM77 °FClear.7 mph61%29.95 "Hg10 mi
8:20 PM77 °FSunny.10 mph61%29.95 "Hg10 mi
7:50 PM77 °FSunny.10 mph57%29.92 "Hg10 mi
7:20 PM79 °FSunny.12 mph54%29.92 "Hg10 mi
6:50 PM81 °FSunny.12 mph48%29.92 "Hg10 mi
6:20 PM81 °FSunny.12 mph51%29.89 "Hg10 mi
5:50 PM81 °FPassing clouds.10 mph51%29.89 "HgN/A
5:20 PM82 °FPassing clouds.12 mph48%29.92 "HgN/A
4:50 PM82 °FPassing clouds.12 mph51%29.92 "HgN/A
4:20 PM82 °FPassing clouds.13 mph51%29.92 "HgN/A
3:50 PM82 °FPassing clouds.13 mph55%29.92 "HgN/A
3:20 PM82 °FPassing clouds.12 mph55%29.92 "HgN/A
2:50 PM82 °FPassing clouds.12 mph51%29.92 "HgN/A
2:20 PM82 °FPassing clouds.12 mph48%29.92 "HgN/A
1:50 PM82 °FPassing clouds.13 mph48%29.92 "HgN/A
1:20 PM82 °FPassing clouds.14 mph48%29.92 "HgN/A
12:50 PM82 °FPassing clouds.14 mph51%29.92 "HgN/A
12:20 PM82 °FScattered clouds.12 mph55%29.92 "HgN/A
11:50 AM82 °FScattered clouds.12 mph51%29.92 "HgN/A
11:20 AM82 °FScattered clouds.6 mph51%29.92 "HgN/A
10:50 AM82 °FScattered clouds.6 mph51%29.92 "HgN/A
10:20 AM81 °FScattered clouds.5 mph51%29.92 "HgN/A
9:50 AM81 °FPassing clouds.3 mph51%29.92 "HgN/A
9:20 AM79 °FScattered clouds.6 mph58%29.92 "HgN/A
8:50 AM77 °FScattered clouds.3 mph61%29.92 "HgN/A
8:20 AM77 °FScattered clouds.3 mph65%29.92 "HgN/A
7:50 AM75 °FPassing clouds.5 mph69%29.92 "HgN/A
7:20 AM73 °FPassing clouds.5 mph74%29.92 "HgN/A
6:50 AM72 °FPassing clouds.5 mph78%29.92 "HgN/A
6:20 AM72 °FPassing clouds.5 mph78%29.92 "HgN/A
Weather by CustomWeather, © 2015

See weather overviewHow to use our weather pages